Time,TemperatureF,DewpointF,PressureIn,WindDirection,WindDirectionDegrees,WindSpeedMPH,WindSpeedGustMPH,Humidity,HourlyPrecipIn,Conditions,Clouds,dailyrainin,SoftwareType,DateUTC
2013-10-14 00:00:00,42.0,41.7,30.36,West,271,0.0,0.0,99,0.00,,CLR,0.00,VWS V15.00,2013-10-14 04:00:00,
2013-10-14 00:01:00,42.0,41.7,30.35,West,271,0.0,0.0,99,0.00,,CLR,0.00,VWS V14.01,2013-10-14 04:01:00,
2013-10-14 00:06:00,41.9,41.6,30.36,West,271,0.0,0.0,99,0.00,,CLR,0.00,VWS V14.01,2013-10-14 04:06:00,
2013-10-14 00:11:00,41.9,41.6,30.35,West,271,0.0,0.0,99,0.00,,CLR,0.00,VWS V14.01,2013-10-14 04:11:00,
2013-10-14 00:15:00,41.7,41.4,30.35,West,271,0.0,0.0,99,0.00,,CLR,0.00,VWS V15.00,2013-10-14 04:15:00,
2013-10-14 00:16:00,41.7,41.4,30.35,West,271,0.0,0.0,99,0.00,,CLR,0.00,VWS V14.01,2013-10-14 04:16:00,
2013-10-14 00:21:00,41.5,41.2,30.35,West,271,0.0,0.0,99,0.00,,CLR,0.00,VWS V14.01,2013-10-14 04:21:00,
2013-10-14 00:26:00,41.5,41.2,30.35,West,271,0.0,0.0,99,0.00,,CLR,0.00,VWS V14.01,2013-10-14 04:26:00,
2013-10-14 00:30:00,41.4,41.1,30.35,West,271,0.0,0.0,99,0.00,,CLR,0.00,VWS V15.00,2013-10-14 04:30:00,
2013-10-14 00:31:00,41.4,41.1,30.35,West,271,0.0,0.0,99,0.00,,CLR,0.00,VWS V14.01,2013-10-14 04:31:00,
2013-10-14 00:36:00,41.3,41.0,30.35,West,271,0.0,0.0,99,0.00,,CLR,0.00,VWS V14.01,2013-10-14 04:36:00,
2013-10-14 00:41:00,41.3,41.0,30.35,West,271,0.0,0.0,99,0.00,,CLR,0.00,VWS V14.01,2013-10-14 04:41:00,
2013-10-14 00:45:00,41.3,41.0,30.35,West,271,0.0,0.0,99,0.00,,CLR,0.00,VWS V15.00,2013-10-14 04:45:00,
2013-10-14 00:46:00,41.2,40.9,30.35,West,271,0.0,0.0,99,0.00,,CLR,0.00,VWS V14.01,2013-10-14 04:46:00,
2013-10-14 00:51:00,41.1,40.8,30.35,West,271,0.0,0.0,99,0.00,,CLR,0.00,VWS V14.01,2013-10-14 04:51:00,
2013-10-14 00:56:00,40.9,40.6,30.35,West,271,0.0,0.0,99,0.00,,CLR,0.00,VWS V14.01,2013-10-14 04:56:00,
2013-10-14 01:00:00,40.6,40.3,30.35,West,271,0.0,0.0,99,0.00,,CLR,0.00,VWS V15.00,2013-10-14 05:00:00,
2013-10-14 01:01:00,40.6,40.3,30.35,West,271,0.0,0.0,99,0.00,,CLR,0.00,VWS V14.01,2013-10-14 05:01:00,
2013-10-14 01:06:00,40.6,40.3,30.35,West,271,0.0,0.0,99,0.00,,CLR,0.00,VWS V14.01,2013-10-14 05:06:00,
2013-10-14 01:11:00,40.6,40.3,30.35,West,271,0.0,0.0,99,0.00,,CLR,0.00,VWS V14.01,2013-10-14 05:11:00,
2013-10-14 01:15:00,40.6,40.3,30.35,West,271,0.0,0.0,99,0.00,,CLR,0.00,VWS V14.01,2013-10-14 05:15:00,
2013-10-14 01:20:00,40.5,40.2,30.35,West,271,0.0,0.0,99,0.00,,CLR,0.00,VWS V14.01,2013-10-14 05:20:00,
2013-10-14 01:25:00,40.3,40.0,30.35,West,271,0.0,0.0,99,0.00,,CLR,0.00,VWS V14.01,2013-10-14 05:25:00,
2013-10-14 01:30:00,40.1,39.8,30.34,West,271,0.0,0.0,99,0.00,,CLR,0.00,VWS V14.01,2013-10-14 05:30:00,
2013-10-14 01:35:00,40.0,39.7,30.34,West,271,0.0,0.0,99,0.00,,CLR,0.00,VWS V14.01,2013-10-14 05:35:00,
2013-10-14 01:40:00,39.8,39.5,30.34,West,271,0.0,0.0,99,0.00,,CLR,0.00,VWS V14.01,2013-10-14 05:40:00,
2013-10-14 01:45:00,39.6,39.3,30.34,West,271,0.0,0.0,99,0.00,,CLR,0.00,VWS V14.01,2013-10-14 05:45:00,
2013-10-14 01:50:00,39.3,39.0,30.34,West,271,0.0,0.0,99,0.00,,CLR,0.00,VWS V14.01,2013-10-14 05:50:00,
2013-10-14 01:55:00,39.3,39.0,30.34,West,271,0.0,0.0,99,0.00,,CLR,0.00,VWS V14.01,2013-10-14 05:55:00,
2013-10-14 02:00:00,39.3,39.0,30.34,West,271,0.0,0.0,99,0.00,,CLR,0.00,VWS V15.00,2013-10-14 06:00:00,
2013-10-14 02:01:00,39.3,39.0,30.34,West,271,0.0,0.0,99,0.00,,CLR,0.00,VWS V14.01,2013-10-14 06:01:00,
2013-10-14 02:06:00,39.2,38.9,30.34,West,271,0.0,0.0,99,0.00,,CLR,0.00,VWS V14.01,2013-10-14 06:06:00,
2013-10-14 02:11:00,39.2,38.9,30.34,West,271,0.0,0.0,99,0.00,,CLR,0.00,VWS V14.01,2013-10-14 06:11:00,
2013-10-14 02:15:00,38.9,38.6,30.33,West,271,0.0,0.0,99,0.00,,CLR,0.00,VWS V15.00,2013-10-14 06:15:00,
2013-10-14 02:16:00,38.9,38.6,30.33,West,271,0.0,0.0,99,0.00,,CLR,0.00,VWS V14.01,2013-10-14 06:16:00,
2013-10-14 02:21:00,38.6,38.3,30.33,West,271,0.0,0.0,99,0.00,,CLR,0.00,VWS V14.01,2013-10-14 06:21:00,
2013-10-14 02:26:00,38.2,37.9,30.33,West,271,0.0,0.0,99,0.00,,CLR,0.00,VWS V14.01,2013-10-14 06:26:00,
2013-10-14 02:30:00,38.4,38.1,30.33,West,271,0.0,0.0,99,0.00,,CLR,0.00,VWS V15.00,2013-10-14 06:30:00,
2013-10-14 02:31:00,38.5,38.2,30.33,West,271,0.0,0.0,99,0.00,,CLR,0.00,VWS V14.01,2013-10-14 06:31:00,
2013-10-14 02:36:00,38.4,38.1,30.33,West,271,0.0,0.0,99,0.00,,CLR,0.00,VWS V14.01,2013-10-14 06:36:00,
2013-10-14 02:41:00,38.3,38.0,30.33,West,271,0.0,0.0,99,0.00,,CLR,0.00,VWS V14.01,2013-10-14 06:41:00,
2013-10-14 02:45:00,38.3,38.0,30.33,West,271,0.0,0.0,99,0.00,,CLR,0.00,VWS V15.00,2013-10-14 06:45:00,
2013-10-14 02:46:00,38.3,38.0,30.33,West,271,0.0,0.0,99,0.00,,CLR,0.00,VWS V14.01,2013-10-14 06:46:00,
2013-10-14 02:51:00,38.0,37.7,30.33,West,271,0.0,0.0,99,0.00,,CLR,0.00,VWS V14.01,2013-10-14 06:51:00,
2013-10-14 02:56:00,37.9,37.6,30.33,West,271,0.0,0.0,99,0.00,,CLR,0.00,VWS V14.01,2013-10-14 06:56:00,
2013-10-14 03:00:00,37.8,37.5,30.32,West,271,0.0,0.0,99,0.00,,CLR,0.00,VWS V15.00,2013-10-14 07:00:00,
2013-10-14 03:01:00,37.8,37.5,30.32,West,271,0.0,0.0,99,0.00,,CLR,0.00,VWS V14.01,2013-10-14 07:01:00,
2013-10-14 03:06:00,37.6,37.3,30.33,West,271,0.0,0.0,99,0.00,,CLR,0.00,VWS V14.01,2013-10-14 07:06:00,
2013-10-14 03:11:00,37.4,37.2,30.33,West,271,0.0,0.0,99,0.00,,CLR,0.00,VWS V14.01,2013-10-14 07:11:00,
2013-10-14 03:15:00,37.7,37.4,30.33,West,271,0.0,0.0,99,0.00,,CLR,0.00,VWS V15.00,2013-10-14 07:15:00,
2013-10-14 03:16:00,37.7,37.5,30.33,West,271,0.0,0.0,99,0.00,,CLR,0.00,VWS V14.01,2013-10-14 07:16:00,
2013-10-14 03:21:00,38.0,38.0,30.33,West,271,0.0,0.0,100,0.00,,CLR,0.00,VWS V14.01,2013-10-14 07:21:00,
2013-10-14 03:26:00,37.9,37.6,30.33,West,273,0.0,0.0,99,0.00,,CLR,0.00,VWS V14.01,2013-10-14 07:26:00,
2013-10-14 03:30:00,38.0,38.0,30.33,West,260,0.0,1.0,100,0.00,,CLR,0.00,VWS V15.00,2013-10-14 07:30:00,
2013-10-14 03:31:00,38.0,38.0,30.33,West,261,0.0,1.0,100,0.00,,CLR,0.00,VWS V14.01,2013-10-14 07:31:00,
2013-10-14 03:36:00,38.0,37.7,30.33,WSW,255,0.0,1.0,99,0.00,,CLR,0.00,VWS V14.01,2013-10-14 07:36:00,
2013-10-14 03:41:00,37.9,37.6,30.33,WSW,254,0.0,0.0,99,0.00,,CLR,0.00,VWS V14.01,2013-10-14 07:41:00,
2013-10-14 03:45:00,37.8,37.5,30.33,WSW,255,0.0,0.0,99,0.00,,CLR,0.00,VWS V15.00,2013-10-14 07:45:00,
2013-10-14 03:46:00,37.8,37.5,30.32,WSW,255,0.0,0.0,99,0.00,,CLR,0.00,VWS V14.01,2013-10-14 07:46:00,
2013-10-14 03:51:00,37.7,37.5,30.32,WSW,255,0.0,0.0,99,0.00,,CLR,0.00,VWS V14.01,2013-10-14 07:51:00,
2013-10-14 03:56:00,37.5,37.2,30.33,WSW,255,0.0,0.0,99,0.00,,CLR,0.00,VWS V14.01,2013-10-14 07:56:00,
2013-10-14 04:00:00,37.4,37.2,30.32,WSW,254,0.0,0.0,99,0.00,,CLR,0.00,VWS V15.00,2013-10-14 08:00:00,
2013-10-14 04:01:00,37.4,37.2,30.32,WSW,255,0.0,0.0,99,0.00,,CLR,0.00,VWS V14.01,2013-10-14 08:01:00,
2013-10-14 04:06:00,37.2,37.0,30.32,WSW,254,0.0,0.0,99,0.00,,CLR,0.00,VWS V14.01,2013-10-14 08:06:00,
2013-10-14 04:11:00,36.9,36.7,30.32,WSW,254,0.0,0.0,99,0.00,,CLR,0.00,VWS V14.01,2013-10-14 08:11:00,
2013-10-14 04:15:00,36.8,36.5,30.32,WSW,255,0.0,0.0,99,0.00,,CLR,0.00,VWS V15.00,2013-10-14 08:15:00,
2013-10-14 04:16:00,36.7,36.5,30.32,WSW,255,0.0,0.0,99,0.00,,CLR,0.00,VWS V14.01,2013-10-14 08:16:00,
2013-10-14 04:21:00,36.6,36.3,30.32,WSW,255,0.0,0.0,99,0.00,,CLR,0.00,VWS V14.01,2013-10-14 08:21:00,
2013-10-14 04:26:00,36.6,36.3,30.32,WNW,298,0.0,2.0,99,0.00,,CLR,0.00,VWS V14.01,2013-10-14 08:26:00,
2013-10-14 04:30:00,36.7,36.5,30.32,SSW,212,0.0,3.0,99,0.00,,CLR,0.00,VWS V15.00,2013-10-14 08:30:00,
2013-10-14 04:31:00,36.7,36.5,30.32,SSW,212,0.0,1.0,99,0.00,,CLR,0.00,VWS V14.01,2013-10-14 08:31:00,
2013-10-14 04:36:00,36.7,36.5,30.32,SSW,212,0.0,0.0,99,0.00,,CLR,0.00,VWS V14.01,2013-10-14 08:36:00,
2013-10-14 04:41:00,36.7,36.5,30.32,SSW,212,0.0,0.0,99,0.00,,CLR,0.00,VWS V14.01,2013-10-14 08:41:00,
2013-10-14 04:45:00,36.6,36.3,30.32,SSW,212,0.0,0.0,99,0.00,,CLR,0.00,VWS V15.00,2013-10-14 08:45:00,
2013-10-14 04:46:00,36.6,36.3,30.32,SSW,212,0.0,0.0,99,0.00,,CLR,0.00,VWS V14.01,2013-10-14 08:46:00,
2013-10-14 04:51:00,36.5,36.2,30.32,SSW,212,0.0,0.0,99,0.00,,CLR,0.00,VWS V14.01,2013-10-14 08:51:00,
2013-10-14 04:56:00,36.3,36.0,30.32,SSW,212,0.0,0.0,99,0.00,,CLR,0.00,VWS V14.01,2013-10-14 08:56:00,
2013-10-14 05:00:00,36.2,36.0,30.32,SSW,212,0.0,0.0,99,0.00,,CLR,0.00,VWS V15.00,2013-10-14 09:00:00,
2013-10-14 05:01:00,36.1,35.8,30.32,SSW,212,0.0,0.0,99,0.00,,CLR,0.00,VWS V14.01,2013-10-14 09:01:00,
2013-10-14 05:06:00,35.9,35.7,30.32,SSW,212,0.0,0.0,99,0.00,,CLR,0.00,VWS V14.01,2013-10-14 09:06:00,
2013-10-14 05:11:00,35.7,35.5,30.32,SSW,212,0.0,0.0,99,0.00,,CLR,0.00,VWS V14.01,2013-10-14 09:11:00,
2013-10-14 05:15:00,35.6,35.3,30.32,SSW,212,0.0,0.0,99,0.00,,CLR,0.00,VWS V14.01,2013-10-14 09:15:00,
2013-10-14 05:20:00,35.5,35.2,30.32,SSW,212,0.0,0.0,99,0.00,,CLR,0.00,VWS V14.01,2013-10-14 09:20:00,
2013-10-14 05:25:00,35.3,35.0,30.32,SSW,212,0.0,0.0,99,0.00,,CLR,0.00,VWS V14.01,2013-10-14 09:25:00,
2013-10-14 05:30:00,35.3,35.0,30.32,SSW,212,0.0,0.0,99,0.00,,CLR,0.00,VWS V14.01,2013-10-14 09:30:00,
2013-10-14 05:35:00,35.2,35.0,30.32,SSW,212,0.0,0.0,99,0.00,,CLR,0.00,VWS V14.01,2013-10-14 09:35:00,
2013-10-14 05:40:00,35.1,34.8,30.32,SSW,212,0.0,0.0,99,0.00,,CLR,0.00,VWS V14.01,2013-10-14 09:40:00,
2013-10-14 05:45:00,35.1,34.8,30.32,SSW,212,0.0,0.0,99,0.00,,CLR,0.00,VWS V14.01,2013-10-14 09:45:00,
2013-10-14 05:50:00,35.1,34.8,30.32,SSW,212,0.0,0.0,99,0.00,,CLR,0.00,VWS V14.01,2013-10-14 09:50:00,
2013-10-14 05:55:00,35.0,34.8,30.32,SSW,212,0.0,0.0,99,0.00,,CLR,0.00,VWS V14.01,2013-10-14 09:55:00,
2013-10-14 06:00:00,34.9,34.7,30.32,SSW,212,0.0,0.0,99,0.00,,CLR,0.00,VWS V14.01,2013-10-14 10:00:00,
2013-10-14 06:05:00,34.7,34.5,30.32,SSW,212,0.0,0.0,99,0.00,,CLR,0.00,VWS V14.01,2013-10-14 10:05:00,
2013-10-14 06:10:00,34.8,34.5,30.32,SSW,212,0.0,0.0,99,0.00,,CLR,0.00,VWS V14.01,2013-10-14 10:10:00,
2013-10-14 06:15:00,34.9,34.7,30.32,SSW,212,0.0,0.0,99,0.00,,CLR,0.00,VWS V14.01,2013-10-14 10:15:00,
2013-10-14 06:20:00,34.9,34.7,30.32,SSW,212,0.0,0.0,99,0.00,,CLR,0.00,VWS V14.01,2013-10-14 10:20:00,
2013-10-14 06:25:00,34.9,34.7,30.32,SSW,212,0.0,0.0,99,0.00,,CLR,0.00,VWS V14.01,2013-10-14 10:25:00,
2013-10-14 06:30:00,34.9,34.7,30.31,SSW,212,0.0,0.0,99,0.00,,CLR,0.00,VWS V14.01,2013-10-14 10:30:00,
2013-10-14 06:35:00,34.7,34.5,30.31,SSW,212,0.0,0.0,99,0.00,,CLR,0.00,VWS V14.01,2013-10-14 10:35:00,
2013-10-14 06:40:00,34.8,34.5,30.31,SSW,212,0.0,0.0,99,0.00,,CLR,0.00,VWS V14.01,2013-10-14 10:40:00,
2013-10-14 06:45:00,34.7,34.5,30.31,SSW,212,0.0,0.0,99,0.00,,CLR,0.00,VWS V14.01,2013-10-14 10:45:00,
2013-10-14 06:50:00,34.6,34.3,30.32,SSW,212,0.0,0.0,99,0.00,,CLR,0.00,VWS V14.01,2013-10-14 10:50:00,
2013-10-14 06:55:00,34.5,34.2,30.32,SSW,212,0.0,0.0,99,0.00,,CLR,0.00,VWS V14.01,2013-10-14 10:55:00,
2013-10-14 07:00:00,34.5,34.2,30.32,SSW,212,0.0,0.0,99,0.00,,CLR,0.00,VWS V14.01,2013-10-14 11:00:00,
2013-10-14 07:05:00,34.7,34.5,30.32,SSW,212,0.0,0.0,99,0.00,,CLR,0.00,VWS V14.01,2013-10-14 11:05:00,
2013-10-14 07:11:00,34.7,34.5,30.32,SSW,212,0.0,0.0,99,0.00,,CLR,0.00,VWS V14.01,2013-10-14 11:11:00,
2013-10-14 07:15:00,34.8,34.5,30.32,SSW,212,0.0,0.0,99,0.00,,CLR,0.00,VWS V15.00,2013-10-14 11:15:00,
2013-10-14 07:16:00,34.8,34.5,30.32,SSW,212,0.0,0.0,99,0.00,,CLR,0.00,VWS V14.01,2013-10-14 11:16:00,
2013-10-14 07:20:00,34.8,34.5,30.32,SSW,212,0.0,0.0,99,0.00,,CLR,0.00,VWS V14.01,2013-10-14 11:20:00,
2013-10-14 07:25:00,35.2,35.2,30.33,SSW,212,0.0,0.0,100,0.00,,CLR,0.00,VWS V14.01,2013-10-14 11:25:00,
2013-10-14 07:30:00,35.7,35.7,30.33,SSW,212,0.0,0.0,100,0.00,,CLR,0.00,VWS V14.01,2013-10-14 11:30:00,
2013-10-14 07:35:00,36.1,36.1,30.33,SSW,212,0.0,0.0,100,0.00,,CLR,0.00,VWS V14.01,2013-10-14 11:35:00,
2013-10-14 07:40:00,36.6,36.6,30.33,SSW,212,0.0,0.0,100,0.00,,CLR,0.00,VWS V14.01,2013-10-14 11:40:00,
2013-10-14 07:45:00,36.8,36.5,30.33,SSW,212,0.0,0.0,99,0.00,,CLR,0.00,VWS V14.01,2013-10-14 11:45:00,
2013-10-14 07:50:00,37.6,37.6,30.33,SSW,212,0.0,0.0,100,0.00,,CLR,0.00,VWS V14.01,2013-10-14 11:50:00,
2013-10-14 07:55:00,38.2,38.2,30.33,SSW,212,0.0,0.0,100,0.00,,CLR,0.00,VWS V14.01,2013-10-14 11:55:00,
2013-10-14 08:00:00,37.9,37.6,30.33,SSW,212,0.0,0.0,99,0.00,,CLR,0.00,VWS V14.01,2013-10-14 12:00:00,
2013-10-14 08:05:00,38.3,38.0,30.33,SSW,212,0.0,0.0,99,0.00,,CLR,0.00,VWS V14.01,2013-10-14 12:05:00,
2013-10-14 08:10:00,39.0,39.0,30.33,SSW,212,0.0,0.0,100,0.00,,CLR,0.00,VWS V14.01,2013-10-14 12:10:00,
2013-10-14 08:15:00,39.9,39.9,30.33,SSW,212,0.0,0.0,100,0.00,,CLR,0.00,VWS V15.00,2013-10-14 12:15:00,
2013-10-14 08:16:00,40.0,40.0,30.33,SSW,212,0.0,0.0,100,0.00,,CLR,0.00,VWS V14.01,2013-10-14 12:16:00,
2013-10-14 08:21:00,40.4,40.4,30.33,SSW,212,0.0,0.0,100,0.00,,CLR,0.00,VWS V14.01,2013-10-14 12:21:00,
2013-10-14 08:26:00,41.1,41.1,30.33,SSW,212,0.0,0.0,100,0.00,,CLR,0.00,VWS V14.01,2013-10-14 12:26:00,
2013-10-14 08:30:00,41.9,41.9,30.33,SSW,212,0.0,0.0,100,0.00,,CLR,0.00,VWS V15.00,2013-10-14 12:30:00,
2013-10-14 08:31:00,42.0,42.0,30.33,SSW,212,0.0,0.0,100,0.00,,CLR,0.00,VWS V14.01,2013-10-14 12:31:00,
2013-10-14 08:36:00,42.4,42.4,30.33,SSW,212,0.0,0.0,100,0.00,,CLR,0.00,VWS V14.01,2013-10-14 12:36:00,
2013-10-14 08:41:00,42.9,42.9,30.33,SE,146,0.0,1.0,100,0.00,,CLR,0.00,VWS V14.01,2013-10-14 12:41:00,
2013-10-14 08:45:00,42.9,42.9,30.33,SSE,147,0.0,1.0,100,0.00,,CLR,0.00,VWS V15.00,2013-10-14 12:45:00,
2013-10-14 08:46:00,43.0,43.0,30.33,SSE,147,0.0,1.0,100,0.00,,CLR,0.00,VWS V14.01,2013-10-14 12:46:00,
2013-10-14 08:51:00,43.2,42.9,30.33,SSE,147,0.0,0.0,99,0.00,,CLR,0.00,VWS V14.01,2013-10-14 12:51:00,
2013-10-14 08:56:00,43.1,42.8,30.33,SSE,147,0.0,0.0,99,0.00,,CLR,0.00,VWS V14.01,2013-10-14 12:56:00,
2013-10-14 09:00:00,43.5,43.2,30.33,SSE,147,0.0,0.0,99,0.00,,CLR,0.00,VWS V15.00,2013-10-14 13:00:00,
2013-10-14 09:01:00,43.6,43.3,30.33,SE,135,0.0,0.0,99,0.00,,CLR,0.00,VWS V14.01,2013-10-14 13:01:00,
2013-10-14 09:06:00,44.5,44.2,30.33,SE,136,0.0,0.0,99,0.00,,CLR,0.00,VWS V14.01,2013-10-14 13:06:00,
2013-10-14 09:11:00,45.2,44.9,30.33,SE,135,0.0,0.0,99,0.00,,CLR,0.00,VWS V14.01,2013-10-14 13:11:00,
2013-10-14 09:15:00,45.9,45.6,30.33,ESE,118,0.0,0.0,99,0.00,,CLR,0.00,VWS V15.00,2013-10-14 13:15:00,
2013-10-14 09:16:00,46.0,45.7,30.33,ESE,118,0.0,0.0,99,0.00,,CLR,0.00,VWS V14.01,2013-10-14 13:16:00,
2013-10-14 09:21:00,46.7,46.4,30.33,ESE,119,0.0,0.0,99,0.00,,CLR,0.00,VWS V14.01,2013-10-14 13:21:00,
2013-10-14 09:26:00,47.3,46.8,30.33,ESE,114,0.0,0.0,98,0.00,,CLR,0.00,VWS V14.01,2013-10-14 13:26:00,
2013-10-14 09:30:00,47.9,47.4,30.32,ESE,117,0.0,0.0,98,0.00,,CLR,0.00,VWS V15.00,2013-10-14 13:30:00,
2013-10-14 09:31:00,48.0,47.5,30.32,ESE,117,0.0,0.0,98,0.00,,CLR,0.00,VWS V14.01,2013-10-14 13:31:00,
2013-10-14 09:35:00,48.4,47.6,30.32,ESE,117,0.0,0.0,97,0.00,,CLR,0.00,VWS V14.01,2013-10-14 13:35:00,
2013-10-14 09:40:00,49.0,47.9,30.32,ESE,114,0.0,0.0,96,0.00,,CLR,0.00,VWS V14.01,2013-10-14 13:40:00,
2013-10-14 09:45:00,49.5,48.1,30.32,ESE,102,0.0,0.0,95,0.00,,CLR,0.00,VWS V14.01,2013-10-14 13:45:00,
2013-10-14 09:50:00,50.0,48.6,30.32,ESE,105,0.0,2.0,95,0.00,,CLR,0.00,VWS V14.01,2013-10-14 13:50:00,
2013-10-14 09:55:00,50.5,48.8,30.32,SSE,153,1.0,1.0,94,0.00,,CLR,0.00,VWS V14.01,2013-10-14 13:55:00,
2013-10-14 10:00:00,51.3,49.3,30.32,SE,129,0.0,2.0,93,0.00,,CLR,0.00,VWS V15.00,2013-10-14 14:00:00,
2013-10-14 10:01:00,51.4,49.5,30.32,SE,127,1.0,2.0,93,0.00,,CLR,0.00,VWS V14.01,2013-10-14 14:01:00,
2013-10-14 10:06:00,52.3,49.8,30.32,SE,138,0.0,2.0,91,0.00,,CLR,0.00,VWS V14.01,2013-10-14 14:06:00,
2013-10-14 10:11:00,52.7,49.8,30.32,ESE,109,1.0,2.0,90,0.00,,CLR,0.00,VWS V14.01,2013-10-14 14:11:00,
2013-10-14 10:15:00,53.2,49.7,30.32,East,87,3.0,3.0,88,0.00,,CLR,0.00,VWS V15.00,2013-10-14 14:15:00,
2013-10-14 10:16:00,53.2,49.7,30.32,East,86,0.0,3.0,88,0.00,,CLR,0.00,VWS V14.01,2013-10-14 14:16:00,
2013-10-14 10:21:00,54.0,49.9,30.31,ENE,77,1.0,3.0,86,0.00,,CLR,0.00,VWS V14.01,2013-10-14 14:21:00,
2013-10-14 10:26:00,54.6,49.5,30.31,ESE,120,3.0,4.0,83,0.00,,CLR,0.00,VWS V14.01,2013-10-14 14:26:00,
2013-10-14 10:30:00,54.9,49.5,30.31,SE,145,0.0,2.0,82,0.00,,CLR,0.00,VWS V15.00,2013-10-14 14:30:00,
2013-10-14 10:31:00,55.0,49.6,30.31,SE,144,1.0,2.0,82,0.00,,CLR,0.00,VWS V14.01,2013-10-14 14:31:00,
2013-10-14 10:36:00,55.4,49.7,30.31,East,101,0.0,3.0,81,0.00,,CLR,0.00,VWS V14.01,2013-10-14 14:36:00,
2013-10-14 10:41:00,55.4,48.7,30.31,SW,224,0.0,4.0,78,0.00,,CLR,0.00,VWS V14.01,2013-10-14 14:41:00,
2013-10-14 10:45:00,55.5,49.1,30.31,SSE,153,2.0,3.0,79,0.00,,CLR,0.00,VWS V14.01,2013-10-14 14:45:00,
2013-10-14 10:50:00,55.7,47.9,30.31,SW,221,0.0,7.0,75,0.00,,CLR,0.00,VWS V14.01,2013-10-14 14:50:00,
2013-10-14 10:55:00,55.7,48.3,30.30,SSE,153,1.0,2.0,76,0.00,,CLR,0.00,VWS V14.01,2013-10-14 14:55:00,
2013-10-14 11:00:00,55.8,48.0,30.30,SW,221,0.0,3.0,75,0.00,,CLR,0.00,VWS V15.00,2013-10-14 15:00:00,
2013-10-14 11:01:00,55.9,48.5,30.30,SW,220,0.0,3.0,76,0.00,,CLR,0.00,VWS V14.01,2013-10-14 15:01:00,
2013-10-14 11:06:00,56.3,48.5,30.30,SE,141,0.0,2.0,75,0.00,,CLR,0.00,VWS V14.01,2013-10-14 15:06:00,
2013-10-14 11:11:00,56.6,47.3,30.30,West,280,1.0,2.0,71,0.00,,CLR,0.00,VWS V14.01,2013-10-14 15:11:00,
2013-10-14 11:15:00,56.5,47.6,30.30,SE,132,0.0,1.0,72,0.00,,CLR,0.00,VWS V15.00,2013-10-14 15:15:00,
2013-10-14 11:16:00,56.6,47.7,30.30,ESE,103,2.0,2.0,72,0.00,,CLR,0.00,VWS V14.01,2013-10-14 15:16:00,
2013-10-14 11:21:00,56.7,47.4,30.30,WSW,243,1.0,1.0,71,0.00,,CLR,0.00,VWS V14.01,2013-10-14 15:21:00,
2013-10-14 11:26:00,56.8,47.9,30.30,SSE,163,2.0,2.0,72,0.00,,CLR,0.00,VWS V14.01,2013-10-14 15:26:00,
2013-10-14 11:30:00,57.2,48.3,30.29,ESE,113,0.0,2.0,72,0.00,,CLR,0.00,VWS V15.00,2013-10-14 15:30:00,
2013-10-14 11:31:00,57.2,47.5,30.29,SSE,160,2.0,2.0,70,0.00,,CLR,0.00,VWS V14.01,2013-10-14 15:31:00,
2013-10-14 11:36:00,57.7,47.6,30.29,ESE,118,0.0,1.0,69,0.00,,CLR,0.00,VWS V14.01,2013-10-14 15:36:00,
2013-10-14 11:41:00,57.9,48.2,30.29,ESE,113,0.0,4.0,70,0.00,,CLR,0.00,VWS V14.01,2013-10-14 15:41:00,
2013-10-14 11:45:00,58.4,49.0,30.28,ESE,109,0.0,1.0,71,0.00,,CLR,0.00,VWS V15.00,2013-10-14 15:45:00,
2013-10-14 11:46:00,58.5,48.8,30.28,ESE,108,0.0,1.0,70,0.00,,CLR,0.00,VWS V14.01,2013-10-14 15:46:00,
2013-10-14 11:51:00,58.6,48.5,30.28,South,181,0.0,1.0,69,0.00,,CLR,0.00,VWS V14.01,2013-10-14 15:51:00,
2013-10-14 11:56:00,59.0,47.7,30.28,SSE,148,1.0,4.0,66,0.00,,CLR,0.00,VWS V14.01,2013-10-14 15:56:00,
2013-10-14 12:00:00,58.9,47.2,30.28,South,169,1.0,3.0,65,0.00,,CLR,0.00,VWS V14.01,2013-10-14 16:00:00,
2013-10-14 12:05:00,59.1,46.5,30.28,SE,132,1.0,3.0,63,0.00,,CLR,0.00,VWS V14.01,2013-10-14 16:05:00,
2013-10-14 12:10:00,59.4,47.7,30.28,SSE,148,0.0,4.0,65,0.00,,CLR,0.00,VWS V14.01,2013-10-14 16:10:00,
2013-10-14 12:15:00,59.7,47.5,30.27,ESE,104,0.0,1.0,64,0.00,,CLR,0.00,VWS V14.01,2013-10-14 16:15:00,
2013-10-14 12:20:00,59.5,47.3,30.27,South,180,0.0,4.0,64,0.00,,CLR,0.00,VWS V14.01,2013-10-14 16:20:00,
2013-10-14 12:25:00,59.1,47.4,30.27,NNW,333,0.0,3.0,65,0.00,,CLR,0.00,VWS V14.01,2013-10-14 16:25:00,
2013-10-14 12:30:00,59.4,46.8,30.27,SSE,160,1.0,4.0,63,0.00,,CLR,0.00,VWS V14.01,2013-10-14 16:30:00,
2013-10-14 12:35:00,60.1,47.0,30.26,SE,143,2.0,2.0,62,0.00,,CLR,0.00,VWS V14.01,2013-10-14 16:35:00,
2013-10-14 12:40:00,60.5,45.7,30.26,ESE,103,1.0,2.0,58,0.00,,CLR,0.00,VWS V14.01,2013-10-14 16:40:00,
2013-10-14 12:45:00,60.5,46.6,30.26,East,79,1.0,2.0,60,0.00,,CLR,0.00,VWS V14.01,2013-10-14 16:45:00,
2013-10-14 12:50:00,61.0,45.7,30.25,East,95,1.0,4.0,57,0.00,,CLR,0.00,VWS V14.01,2013-10-14 16:50:00,
2013-10-14 12:55:00,61.2,45.4,30.25,ESE,117,1.0,3.0,56,0.00,,CLR,0.00,VWS V14.01,2013-10-14 16:55:00,
2013-10-14 13:00:00,61.5,46.1,30.25,SSE,149,0.0,4.0,57,0.00,,CLR,0.00,VWS V14.01,2013-10-14 17:00:00,
2013-10-14 13:05:00,61.6,45.8,30.24,SE,125,1.0,3.0,56,0.00,,CLR,0.00,VWS V14.01,2013-10-14 17:05:00,
2013-10-14 13:10:00,61.3,46.0,30.24,East,98,0.0,4.0,57,0.00,,CLR,0.00,VWS V14.01,2013-10-14 17:10:00,
2013-10-14 13:15:00,61.4,46.0,30.24,East,96,2.0,3.0,57,0.00,,CLR,0.00,VWS V14.01,2013-10-14 17:15:00,
2013-10-14 13:20:00,61.5,46.1,30.24,ESE,123,3.0,3.0,57,0.00,,CLR,0.00,VWS V14.01,2013-10-14 17:20:00,
2013-10-14 13:25:00,61.7,46.3,30.24,ESE,106,0.0,2.0,57,0.00,,CLR,0.00,VWS V14.01,2013-10-14 17:25:00,
2013-10-14 13:30:00,62.1,46.7,30.24,ESE,105,0.0,0.0,57,0.00,,CLR,0.00,VWS V14.01,2013-10-14 17:30:00,
2013-10-14 13:35:00,62.4,46.5,30.23,SE,138,1.0,2.0,56,0.00,,CLR,0.00,VWS V14.01,2013-10-14 17:35:00,
2013-10-14 13:40:00,62.5,47.5,30.23,SE,137,0.0,1.0,58,0.00,,CLR,0.00,VWS V14.01,2013-10-14 17:40:00,
2013-10-14 13:45:00,62.6,46.7,30.23,SE,143,0.0,1.0,56,0.00,,CLR,0.00,VWS V14.01,2013-10-14 17:45:00,
2013-10-14 13:50:00,62.3,46.0,30.23,SW,225,0.0,0.0,55,0.00,,CLR,0.00,VWS V14.01,2013-10-14 17:50:00,
2013-10-14 13:55:00,62.2,46.8,30.23,SW,217,0.0,3.0,57,0.00,,CLR,0.00,VWS V14.01,2013-10-14 17:55:00,
2013-10-14 14:00:00,62.7,46.8,30.23,ENE,78,4.0,4.0,56,0.00,,CLR,0.00,VWS V14.01,2013-10-14 18:00:00,
2013-10-14 14:05:00,62.9,46.0,30.23,SSE,148,1.0,3.0,54,0.00,,CLR,0.00,VWS V14.01,2013-10-14 18:05:00,
2013-10-14 14:10:00,63.0,47.1,30.22,ESE,122,2.0,3.0,56,0.00,,CLR,0.00,VWS V14.01,2013-10-14 18:10:00,
2013-10-14 14:15:00,62.7,45.8,30.22,SSE,148,2.0,4.0,54,0.00,,CLR,0.00,VWS V14.01,2013-10-14 18:15:00,
2013-10-14 14:20:00,62.6,45.7,30.22,ESE,113,1.0,3.0,54,0.00,,CLR,0.00,VWS V14.01,2013-10-14 18:20:00,
2013-10-14 14:25:00,62.4,45.1,30.22,ESE,120,4.0,6.0,53,0.00,,CLR,0.00,VWS V14.01,2013-10-14 18:25:00,
2013-10-14 14:30:00,62.4,46.0,30.22,South,169,0.0,5.0,55,0.00,,CLR,0.00,VWS V14.01,2013-10-14 18:30:00,
2013-10-14 14:35:00,62.5,45.2,30.22,ESE,111,3.0,6.0,53,0.00,,CLR,0.00,VWS V14.01,2013-10-14 18:35:00,
2013-10-14 14:40:00,62.6,45.2,30.22,ESE,109,1.0,5.0,53,0.00,,CLR,0.00,VWS V14.01,2013-10-14 18:40:00,
2013-10-14 14:45:00,62.6,44.8,30.22,East,94,0.0,4.0,52,0.00,,CLR,0.00,VWS V14.01,2013-10-14 18:45:00,
2013-10-14 14:50:00,62.7,45.3,30.21,NNE,31,0.0,2.0,53,0.00,,CLR,0.00,VWS V14.01,2013-10-14 18:50:00,
2013-10-14 14:55:00,62.6,44.2,30.21,SE,126,1.0,2.0,51,0.00,,CLR,0.00,VWS V14.01,2013-10-14 18:55:00,
2013-10-14 15:00:00,62.7,44.8,30.21,SE,141,1.0,1.0,52,0.00,,CLR,0.00,VWS V14.01,2013-10-14 19:00:00,
2013-10-14 15:05:00,62.7,43.8,30.21,ENE,65,0.0,4.0,50,0.00,,CLR,0.00,VWS V14.01,2013-10-14 19:05:00,
2013-10-14 15:10:00,62.7,43.8,30.21,WNW,295,2.0,3.0,50,0.00,,CLR,0.00,VWS V14.01,2013-10-14 19:10:00,
2013-10-14 15:15:00,62.7,43.8,30.21,WNW,300,1.0,1.0,50,0.00,,CLR,0.00,VWS V14.01,2013-10-14 19:15:00,
2013-10-14 15:20:00,62.9,43.5,30.21,SE,124,0.0,5.0,49,0.00,,CLR,0.00,VWS V14.01,2013-10-14 19:20:00,
2013-10-14 15:25:00,62.9,42.9,30.21,SE,131,2.0,3.0,48,0.00,,CLR,0.00,VWS V14.01,2013-10-14 19:25:00,
2013-10-14 15:30:00,62.8,43.4,30.21,South,180,0.0,3.0,49,0.00,,CLR,0.00,VWS V14.01,2013-10-14 19:30:00,
2013-10-14 15:35:00,62.8,43.9,30.20,ESE,114,0.0,2.0,50,0.00,,CLR,0.00,VWS V14.01,2013-10-14 19:35:00,
2013-10-14 15:40:00,62.7,44.3,30.20,ESE,115,0.0,1.0,51,0.00,,CLR,0.00,VWS V14.01,2013-10-14 19:40:00,
2013-10-14 15:45:00,62.8,44.4,30.20,ESE,115,2.0,2.0,51,0.00,,CLR,0.00,VWS V14.01,2013-10-14 19:45:00,
2013-10-14 15:50:00,62.9,44.0,30.20,East,89,2.0,2.0,50,0.00,,CLR,0.00,VWS V14.01,2013-10-14 19:50:00,
2013-10-14 15:55:00,63.0,43.6,30.20,SE,138,0.0,3.0,49,0.00,,CLR,0.00,VWS V14.01,2013-10-14 19:55:00,
2013-10-14 16:00:00,63.1,43.7,30.19,ESE,103,1.0,4.0,49,0.00,,CLR,0.00,VWS V14.01,2013-10-14 20:00:00,
2013-10-14 16:05:00,63.1,44.2,30.20,SSE,153,2.0,2.0,50,0.00,,CLR,0.00,VWS V14.01,2013-10-14 20:05:00,
2013-10-14 16:10:00,63.2,44.3,30.19,SE,124,1.0,4.0,50,0.00,,CLR,0.00,VWS V14.01,2013-10-14 20:10:00,
2013-10-14 16:15:00,62.9,43.5,30.19,South,183,0.0,3.0,49,0.00,,CLR,0.00,VWS V14.01,2013-10-14 20:15:00,
2013-10-14 16:20:00,62.7,43.3,30.19,SSE,155,1.0,2.0,49,0.00,,CLR,0.00,VWS V14.01,2013-10-14 20:20:00,
2013-10-14 16:25:00,62.6,43.7,30.19,SE,141,3.0,3.0,50,0.00,,CLR,0.00,VWS V14.01,2013-10-14 20:25:00,
2013-10-14 16:30:00,62.6,44.8,30.19,SW,216,2.0,3.0,52,0.00,,CLR,0.00,VWS V14.01,2013-10-14 20:30:00,
2013-10-14 16:35:00,62.5,45.2,30.19,SW,224,4.0,5.0,53,0.00,,CLR,0.00,VWS V14.01,2013-10-14 20:35:00,
2013-10-14 16:40:00,62.4,44.6,30.19,ESE,113,0.0,1.0,52,0.00,,CLR,0.00,VWS V14.01,2013-10-14 20:40:00,
2013-10-14 16:45:00,62.3,44.0,30.19,ESE,114,0.0,1.0,51,0.00,,CLR,0.00,VWS V14.01,2013-10-14 20:45:00,
2013-10-14 16:50:00,62.4,44.0,30.19,SSE,165,0.0,4.0,51,0.00,,CLR,0.00,VWS V14.01,2013-10-14 20:50:00,
2013-10-14 16:55:00,62.2,44.4,30.19,SSE,156,0.0,1.0,52,0.00,,CLR,0.00,VWS V14.01,2013-10-14 20:55:00,
2013-10-14 17:00:00,62.0,44.2,30.19,SSE,150,0.0,0.0,52,0.00,,CLR,0.00,VWS V14.01,2013-10-14 21:00:00,
2013-10-14 17:02:00,61.9,44.1,30.19,SSE,151,0.0,0.0,52,0.00,,CLR,0.00,VWS V14.01,2013-10-14 21:02:00,
2013-10-14 17:07:00,61.7,44.4,30.19,SSE,150,0.0,0.0,53,0.00,,CLR,0.00,VWS V14.01,2013-10-14 21:07:00,
2013-10-14 17:12:00,61.4,44.1,30.20,SSE,151,0.0,1.0,53,0.00,,CLR,0.00,VWS V14.01,2013-10-14 21:12:00,
2013-10-14 17:15:00,61.4,44.6,30.19,SSE,151,0.0,1.0,54,0.00,,CLR,0.00,VWS V15.00,2013-10-14 21:15:00,
2013-10-14 17:17:00,61.3,45.0,30.20,SE,125,0.0,2.0,55,0.00,,CLR,0.00,VWS V14.01,2013-10-14 21:17:00,
2013-10-14 17:22:00,61.2,45.4,30.20,SSE,151,2.0,2.0,56,0.00,,CLR,0.00,VWS V14.01,2013-10-14 21:22:00,
2013-10-14 17:27:00,60.9,45.6,30.20,SSE,155,0.0,1.0,57,0.00,,CLR,0.00,VWS V14.01,2013-10-14 21:27:00,
2013-10-14 17:30:00,60.7,45.4,30.20,SSE,148,0.0,1.0,57,0.00,,CLR,0.00,VWS V15.00,2013-10-14 21:30:00,
2013-10-14 17:32:00,60.5,45.7,30.20,SSE,148,0.0,1.0,58,0.00,,CLR,0.00,VWS V14.01,2013-10-14 21:32:00,
2013-10-14 17:36:00,60.2,45.8,30.20,SE,146,0.0,1.0,59,0.00,,CLR,0.00,VWS V14.01,2013-10-14 21:36:00,
2013-10-14 17:41:00,59.9,45.5,30.20,SSE,153,1.0,1.0,59,0.00,,CLR,0.00,VWS V14.01,2013-10-14 21:41:00,
2013-10-14 17:45:00,59.7,45.4,30.20,SSE,153,0.0,1.0,59,0.00,,CLR,0.00,VWS V15.00,2013-10-14 21:45:00,
2013-10-14 17:46:00,59.6,45.3,30.20,SSE,153,0.0,1.0,59,0.00,,CLR,0.00,VWS V14.01,2013-10-14 21:46:00,
2013-10-14 17:51:00,59.4,45.5,30.20,SE,136,0.0,3.0,60,0.00,,CLR,0.00,VWS V14.01,2013-10-14 21:51:00,
2013-10-14 17:56:00,59.1,45.7,30.20,South,173,0.0,3.0,61,0.00,,CLR,0.00,VWS V14.01,2013-10-14 21:56:00,
2013-10-14 18:00:00,58.9,45.5,30.20,South,173,0.0,0.0,61,0.00,,CLR,0.00,VWS V15.00,2013-10-14 22:00:00,
2013-10-14 18:01:00,58.8,45.8,30.20,South,170,0.0,0.0,62,0.00,,CLR,0.00,VWS V14.01,2013-10-14 22:01:00,
2013-10-14 18:06:00,58.3,46.2,30.21,South,170,0.0,0.0,64,0.00,,CLR,0.00,VWS V14.01,2013-10-14 22:06:00,
2013-10-14 18:12:00,57.8,46.9,30.20,South,186,0.0,1.0,67,0.00,,CLR,0.00,VWS V14.01,2013-10-14 22:12:00,
2013-10-14 18:15:00,57.4,46.2,30.20,South,187,0.0,1.0,66,0.00,,CLR,0.00,VWS V15.00,2013-10-14 22:15:00,
2013-10-14 18:17:00,57.3,46.0,30.21,South,187,0.0,0.0,66,0.00,,CLR,0.00,VWS V14.01,2013-10-14 22:17:00,
2013-10-14 18:22:00,57.0,46.2,30.21,South,188,0.0,0.0,67,0.00,,CLR,0.00,VWS V14.01,2013-10-14 22:22:00,
2013-10-14 18:27:00,56.7,46.3,30.21,South,187,0.0,0.0,68,0.00,,CLR,0.00,VWS V14.01,2013-10-14 22:27:00,
2013-10-14 18:30:00,56.5,46.1,30.21,South,187,0.0,0.0,68,0.00,,CLR,0.00,VWS V15.00,2013-10-14 22:30:00,
2013-10-14 18:32:00,56.3,45.9,30.21,South,187,0.0,0.0,68,0.00,,CLR,0.00,VWS V14.01,2013-10-14 22:32:00,
2013-10-14 18:37:00,56.0,46.4,30.21,South,188,0.0,0.0,70,0.00,,CLR,0.00,VWS V14.01,2013-10-14 22:37:00,
2013-10-14 18:42:00,55.6,46.4,30.22,South,187,0.0,0.0,71,0.00,,CLR,0.00,VWS V14.01,2013-10-14 22:42:00,
2013-10-14 18:45:00,55.4,46.2,30.22,South,187,0.0,0.0,71,0.00,,CLR,0.00,VWS V15.00,2013-10-14 22:45:00,
2013-10-14 18:47:00,55.3,46.4,30.22,South,187,0.0,0.0,72,0.00,,CLR,0.00,VWS V14.01,2013-10-14 22:47:00,
2013-10-14 18:52:00,55.0,46.5,30.22,South,187,0.0,0.0,73,0.00,,CLR,0.00,VWS V14.01,2013-10-14 22:52:00,
2013-10-14 18:57:00,54.7,46.2,30.22,South,187,0.0,0.0,73,0.00,,CLR,0.00,VWS V14.01,2013-10-14 22:57:00,
2013-10-14 19:00:00,54.6,46.1,30.22,South,187,0.0,0.0,73,0.00,,CLR,0.00,VWS V15.00,2013-10-14 23:00:00,
2013-10-14 19:02:00,54.5,46.0,30.22,South,187,0.0,0.0,73,0.00,,CLR,0.00,VWS V14.01,2013-10-14 23:02:00,
2013-10-14 19:07:00,54.4,45.9,30.22,South,187,0.0,0.0,73,0.00,,CLR,0.00,VWS V14.01,2013-10-14 23:07:00,
2013-10-14 19:12:00,54.5,46.4,30.22,South,187,0.0,0.0,74,0.00,,CLR,0.00,VWS V14.01,2013-10-14 23:12:00,
2013-10-14 19:15:00,54.6,46.1,30.22,South,187,0.0,0.0,73,0.00,,CLR,0.00,VWS V15.00,2013-10-14 23:15:00,
2013-10-14 19:17:00,54.7,46.2,30.22,South,187,0.0,0.0,73,0.00,,CLR,0.00,VWS V14.01,2013-10-14 23:17:00,
2013-10-14 19:22:00,54.7,46.6,30.22,South,188,0.0,0.0,74,0.00,,CLR,0.00,VWS V14.01,2013-10-14 23:22:00,
2013-10-14 19:27:00,54.7,48.3,30.22,South,187,0.0,0.0,79,0.00,,CLR,0.00,VWS V14.01,2013-10-14 23:27:00,
2013-10-14 19:30:00,54.5,47.1,30.22,South,188,0.0,0.0,76,0.00,,CLR,0.00,VWS V15.00,2013-10-14 23:30:00,
2013-10-14 19:32:00,54.5,47.1,30.22,South,187,0.0,0.0,76,0.00,,CLR,0.00,VWS V14.01,2013-10-14 23:32:00,
2013-10-14 19:37:00,54.3,46.2,30.22,South,187,0.0,0.0,74,0.00,,CLR,0.00,VWS V14.01,2013-10-14 23:37:00,
2013-10-14 19:42:00,54.5,46.4,30.22,South,188,0.0,0.0,74,0.00,,CLR,0.00,VWS V14.01,2013-10-14 23:42:00,
2013-10-14 19:45:00,54.7,45.5,30.22,South,187,0.0,0.0,71,0.00,,CLR,0.00,VWS V15.00,2013-10-14 23:45:00,
2013-10-14 19:47:00,54.9,46.4,30.22,South,190,0.0,0.0,73,0.00,,CLR,0.00,VWS V14.01,2013-10-14 23:47:00,
2013-10-14 19:52:00,55.2,46.0,30.22,SSE,158,0.0,1.0,71,0.00,,CLR,0.00,VWS V14.01,2013-10-14 23:52:00,
2013-10-14 19:57:00,55.6,45.6,30.22,SSW,209,2.0,2.0,69,0.00,,CLR,0.00,VWS V14.01,2013-10-14 23:57:00,
2013-10-14 20:00:00,55.8,46.2,30.22,SE,136,0.0,2.0,70,0.00,,CLR,0.00,VWS V15.00,2013-10-15 00:00:00,
2013-10-14 20:02:00,55.9,46.3,30.22,SE,137,0.0,1.0,70,0.00,,CLR,0.00,VWS V14.01,2013-10-15 00:02:00,
2013-10-14 20:07:00,56.0,46.0,30.22,SSE,152,0.0,2.0,69,0.00,,CLR,0.00,VWS V14.01,2013-10-15 00:07:00,
2013-10-14 20:12:00,56.1,46.8,30.22,SE,137,0.0,0.0,71,0.00,,CLR,0.00,VWS V14.01,2013-10-15 00:12:00,
2013-10-14 20:15:00,56.1,47.2,30.22,SE,137,0.0,0.0,72,0.00,,CLR,0.00,VWS V15.00,2013-10-15 00:15:00,
2013-10-14 20:16:00,56.0,47.5,30.22,SE,137,0.0,0.0,73,0.00,,CLR,0.00,VWS V14.01,2013-10-15 00:16:00,
2013-10-14 20:21:00,55.9,47.0,30.22,ESE,108,0.0,3.0,72,0.00,,CLR,0.00,VWS V14.01,2013-10-15 00:21:00,
2013-10-14 20:26:00,55.9,47.7,30.22,ESE,108,0.0,1.0,74,0.00,,CLR,0.00,VWS V14.01,2013-10-15 00:26:00,
2013-10-14 20:30:00,55.8,48.4,30.22,ESE,108,0.0,0.0,76,0.00,,CLR,0.00,VWS V15.00,2013-10-15 00:30:00,
2013-10-14 20:31:00,55.7,49.0,30.22,ESE,109,0.0,0.0,78,0.00,,CLR,0.00,VWS V14.01,2013-10-15 00:31:00,
2013-10-14 20:36:00,55.3,48.9,30.22,ESE,108,0.0,0.0,79,0.00,,CLR,0.00,VWS V14.01,2013-10-15 00:36:00,
2013-10-14 20:41:00,54.9,48.9,30.22,ESE,109,0.0,0.0,80,0.00,,CLR,0.00,VWS V14.01,2013-10-15 00:41:00,
2013-10-14 20:45:00,54.7,49.0,30.22,ESE,108,0.0,0.0,81,0.00,,CLR,0.00,VWS V15.00,2013-10-15 00:45:00,
2013-10-14 20:46:00,54.6,48.9,30.22,ESE,108,0.0,0.0,81,0.00,,CLR,0.00,VWS V14.01,2013-10-15 00:46:00,
2013-10-14 20:51:00,54.2,48.2,30.22,ESE,108,0.0,0.0,80,0.00,,CLR,0.00,VWS V14.01,2013-10-15 00:51:00,
2013-10-14 20:56:00,53.8,47.5,30.22,ESE,108,0.0,0.0,79,0.00,,CLR,0.00,VWS V14.01,2013-10-15 00:56:00,
2013-10-14 21:00:00,53.6,47.3,30.21,ESE,108,0.0,0.0,79,0.00,,CLR,0.00,VWS V15.00,2013-10-15 01:00:00,
2013-10-14 21:01:00,53.6,47.6,30.22,ESE,112,0.0,0.0,80,0.00,,CLR,0.00,VWS V14.01,2013-10-15 01:01:00,
2013-10-14 21:07:00,53.3,47.0,30.21,ESE,111,0.0,0.0,79,0.00,,CLR,0.00,VWS V14.01,2013-10-15 01:07:00,
2013-10-14 21:12:00,53.0,47.0,30.21,ESE,112,0.0,0.0,80,0.00,,CLR,0.00,VWS V14.01,2013-10-15 01:12:00,
2013-10-14 21:15:00,52.9,46.9,30.21,ESE,111,0.0,0.0,80,0.00,,CLR,0.00,VWS V15.00,2013-10-15 01:15:00,
2013-10-14 21:17:00,52.8,46.8,30.22,ESE,111,0.0,0.0,80,0.00,,CLR,0.00,VWS V14.01,2013-10-15 01:17:00,
2013-10-14 21:22:00,52.6,46.6,30.22,ESE,111,0.0,0.0,80,0.00,,CLR,0.00,VWS V14.01,2013-10-15 01:22:00,
2013-10-14 21:27:00,52.3,46.7,30.22,ESE,111,0.0,0.0,81,0.00,,CLR,0.00,VWS V14.01,2013-10-15 01:27:00,
2013-10-14 21:30:00,52.2,46.5,30.22,ESE,112,0.0,0.0,81,0.00,,CLR,0.00,VWS V15.00,2013-10-15 01:30:00,
2013-10-14 21:32:00,52.1,46.8,30.22,ESE,111,0.0,0.0,82,0.00,,CLR,0.00,VWS V14.01,2013-10-15 01:32:00,
2013-10-14 21:37:00,51.9,46.6,30.22,ESE,111,0.0,0.0,82,0.00,,CLR,0.00,VWS V14.01,2013-10-15 01:37:00,
2013-10-14 21:42:00,51.7,46.4,30.21,ESE,112,0.0,0.0,82,0.00,,CLR,0.00,VWS V14.01,2013-10-15 01:42:00,
2013-10-14 21:45:00,51.6,46.3,30.21,ESE,112,0.0,0.0,82,0.00,,CLR,0.00,VWS V15.00,2013-10-15 01:45:00,
2013-10-14 21:47:00,51.6,46.3,30.21,ESE,111,0.0,0.0,82,0.00,,CLR,0.00,VWS V14.01,2013-10-15 01:47:00,
2013-10-14 21:52:00,51.5,46.2,30.21,ESE,112,0.0,0.0,82,0.00,,CLR,0.00,VWS V14.01,2013-10-15 01:52:00,
2013-10-14 21:57:00,51.4,46.4,30.21,ESE,111,0.0,0.0,83,0.00,,CLR,0.00,VWS V14.01,2013-10-15 01:57:00,
2013-10-14 22:00:00,51.3,46.3,30.21,ESE,112,0.0,0.0,83,0.00,,CLR,0.00,VWS V15.00,2013-10-15 02:00:00,
2013-10-14 22:02:00,51.2,46.2,30.21,ESE,111,0.0,0.0,83,0.00,,CLR,0.00,VWS V14.01,2013-10-15 02:02:00,
2013-10-14 22:07:00,51.2,46.5,30.21,ESE,112,0.0,0.0,84,0.00,,CLR,0.00,VWS V14.01,2013-10-15 02:07:00,
2013-10-14 22:12:00,51.0,46.7,30.21,ESE,111,0.0,0.0,85,0.00,,CLR,0.00,VWS V14.01,2013-10-15 02:12:00,
2013-10-14 22:15:00,51.0,46.7,30.21,ESE,111,0.0,0.0,85,0.00,,CLR,0.00,VWS V15.00,2013-10-15 02:15:00,
2013-10-14 22:17:00,51.0,46.7,30.21,ESE,111,0.0,0.0,85,0.00,,CLR,0.00,VWS V14.01,2013-10-15 02:17:00,
2013-10-14 22:22:00,50.9,46.6,30.21,ESE,112,0.0,0.0,85,0.00,,CLR,0.00,VWS V14.01,2013-10-15 02:22:00,
2013-10-14 22:27:00,50.8,46.5,30.21,ESE,111,0.0,0.0,85,0.00,,CLR,0.00,VWS V14.01,2013-10-15 02:27:00,
2013-10-14 22:30:00,50.8,46.8,30.21,ESE,112,0.0,0.0,86,0.00,,CLR,0.00,VWS V15.00,2013-10-15 02:30:00,
2013-10-14 22:32:00,50.6,46.6,30.21,ESE,111,0.0,0.0,86,0.00,,CLR,0.00,VWS V14.01,2013-10-15 02:32:00,
2013-10-14 22:37:00,50.4,46.4,30.21,ESE,111,0.0,0.0,86,0.00,,CLR,0.00,VWS V14.01,2013-10-15 02:37:00,
2013-10-14 22:42:00,50.2,46.5,30.21,ESE,112,0.0,0.0,87,0.00,,CLR,0.00,VWS V14.01,2013-10-15 02:42:00,
2013-10-14 22:45:00,50.2,46.8,30.21,ESE,111,0.0,0.0,88,0.00,,CLR,0.00,VWS V15.00,2013-10-15 02:45:00,
2013-10-14 22:47:00,50.1,46.7,30.21,ESE,111,0.0,0.0,88,0.00,,CLR,0.00,VWS V14.01,2013-10-15 02:47:00,
2013-10-14 22:52:00,50.2,46.8,30.21,ESE,108,0.0,0.0,88,0.00,,CLR,0.00,VWS V14.01,2013-10-15 02:52:00,
2013-10-14 22:57:00,50.2,46.8,30.21,ESE,108,0.0,0.0,88,0.00,,CLR,0.00,VWS V14.01,2013-10-15 02:57:00,
2013-10-14 23:00:00,50.1,46.7,30.21,ESE,108,0.0,0.0,88,0.00,,CLR,0.00,VWS V15.00,2013-10-15 03:00:00,
2013-10-14 23:02:00,50.0,46.9,30.21,ESE,108,0.0,0.0,89,0.00,,CLR,0.00,VWS V14.01,2013-10-15 03:02:00,
2013-10-14 23:07:00,49.8,46.7,30.21,ESE,108,0.0,0.0,89,0.00,,CLR,0.00,VWS V14.01,2013-10-15 03:07:00,
2013-10-14 23:12:00,49.8,47.0,30.21,ESE,110,0.0,0.0,90,0.00,,CLR,0.00,VWS V14.01,2013-10-15 03:12:00,
2013-10-14 23:15:00,49.9,47.1,30.21,ESE,108,0.0,0.0,90,0.00,,CLR,0.00,VWS V15.00,2013-10-15 03:15:00,
2013-10-14 23:17:00,49.9,47.1,30.21,ESE,108,0.0,0.0,90,0.00,,CLR,0.00,VWS V14.01,2013-10-15 03:17:00,
2013-10-14 23:22:00,49.9,47.1,30.21,ESE,108,0.0,0.0,90,0.00,,CLR,0.00,VWS V14.01,2013-10-15 03:22:00,
2013-10-14 23:27:00,49.9,47.4,30.21,ESE,108,0.0,0.0,91,0.00,,CLR,0.00,VWS V14.01,2013-10-15 03:27:00,
2013-10-14 23:30:00,49.9,47.4,30.21,ESE,108,0.0,0.0,91,0.00,,CLR,0.00,VWS V15.00,2013-10-15 03:30:00,
2013-10-14 23:32:00,49.9,47.4,30.21,ESE,108,0.0,0.0,91,0.00,,CLR,0.00,VWS V14.01,2013-10-15 03:32:00,
2013-10-14 23:37:00,49.9,47.4,30.21,ESE,108,0.0,0.0,91,0.00,,CLR,0.00,VWS V14.01,2013-10-15 03:37:00,
2013-10-14 23:42:00,49.9,47.4,30.21,ESE,108,0.0,0.0,91,0.00,,CLR,0.00,VWS V14.01,2013-10-15 03:42:00,
2013-10-14 23:45:00,49.9,47.4,30.21,ESE,108,0.0,0.0,91,0.00,,CLR,0.00,VWS V15.00,2013-10-15 03:45:00,
2013-10-14 23:47:00,50.0,47.5,30.21,ESE,108,0.0,0.0,91,0.00,,CLR,0.00,VWS V14.01,2013-10-15 03:47:00,
2013-10-14 23:52:00,50.0,47.5,30.21,ESE,108,0.0,0.0,91,0.00,,CLR,0.00,VWS V14.01,2013-10-15 03:52:00,
2013-10-14 23:57:00,50.1,47.6,30.21,ESE,108,0.0,0.0,91,0.00,,CLR,0.00,VWS V14.01,2013-10-15 03:57:00,